This demonstration page uses our WeatherBlox Daily Observations layout. Learn more.

Left ArrowRight Arrow

41.55636, -103.73856

Hourly Observations for April 9, 2021

Temp ( °F °C ) Dew Point ( °F °C ) Humidity (%) Winds ( mph kmh ) Pressure ( in mb ) Visibility ( mi km ) Precip ( " mm )
12:58 am 00:58 Mostly Cloudy 36 2.3 30 -1 79 79 NNW 26 43 29.76 1008 10 16 N/A
1:58 am 01:58 Cloudy 35 1.6 28 -2 77 77 NNW 17 28 29.78 1008 10 16 N/A
2:58 am 02:58 Cloudy 34 1 28 -2.4 78 78 NNW 18 30 29.79 1009 10 16 N/A
3:58 am 03:58 Mostly Cloudy 33 0.8 27 -2.7 78 78 NNW 24 39 29.80 1009 10 16 N/A
4:58 am 04:58 Cloudy 33 0.6 27 -3 77 77 NNW 24 39 29.82 1010 10 16 N/A
5:58 am 05:58 Windy with Snow Likely 31 -0.4 28 -2.2 88 88 NNW 28 44 29.87 1012 6 10 N/A
6:58 am 06:58 Windy with Snow Likely 31 -0.7 28 -2.1 90 90 NNW 24 39 29.92 1013 1 2 N/A
7:58 am 07:58 Mostly Cloudy 31 -0.5 26 -3.3 82 82 NNW 28 44 29.98 1015 10 16 N/A
8:58 am 08:58 Mostly Cloudy 32 -0.1 23 -4.9 70 70 NNW 30 48 30.02 1017 10 16 N/A
9:58 am 09:58 Mostly Cloudy 34 1.1 24 -4.5 67 67 NNW 35 56 30.06 1018 10 16 N/A
10:58 am 10:58 Partly Cloudy 37 3 24 -4.5 58 58 NNW 30 48 30.05 1018 10 16 N/A
11:58 am 11:58 Partly Cloudy 40 4.5 22 -5.7 48 48 N 28 44 30.05 1018 10 16 N/A
12:58 pm 12:58 Partly Cloudy 40 4.7 22 -5.6 48 48 NNW 24 39 30.06 1018 10 16 N/A
1:58 pm 13:58 Partly Cloudy 43 6 20 -6.5 41 41 NNW 26 43 30.06 1018 10 16 N/A
2:58 pm 14:58 Mostly Sunny 44 6.7 21 -5.9 41 41 N 22 35 30.04 1017 10 16 N/A
3:58 pm 15:58 Mostly Sunny 44 6.5 18 -8 35 35 NNW 22 35 30.04 1017 10 16 N/A
4:58 pm 16:58 Mostly Sunny 44 6.4 14 -10.2 30 30 NNW 24 39 30.05 1018 10 16 N/A
5:58 pm 17:58 Mostly Sunny 43 6.2 14 -9.8 31 31 N 20 31 30.05 1018 10 16 N/A
6:58 pm 18:58 Mostly Sunny 41 4.8 14 -9.8 34 34 N 14 22 30.06 1018 10 16 N/A
7:58 pm 19:58 Clear 37 2.7 15 -9.3 41 41 N 14 22 30.07 1018 10 16 N/A
8:58 pm 20:58 Clear 34 1 16 -9.1 47 47 NNE 7 11 30.10 1019 10 16 N/A
9:58 pm 21:58 Clear 35 1.5 15 -9.7 44 44 N N/A 30.06 1018 10 16 N/A
10:58 pm 22:58 Clear 33 0.5 14 -9.8 46 46 N N/A 30.06 1018 10 16 N/A
11:58 pm 23:58 Clear 29 -1.7 15 -9.4 56 56 SSW 6 9 30.08 1019 10 16 N/A

Powered by AerisWeather